When you browse on this site, cookies collect data to enhance your experience and personalize the content and advertising you see.
Visit our Privacy Policy to learn more. By continuing to use the site, you agree to this use of cookies and data.
  • In Netherlands
  • List of Countries
  • For 7 days
  • Water Temperature
  • Weather Map
  • Weather Widgets
  • user-avatar
    Login

    Hourly Weather Mechlin

    Today, 3 April, Friday

    Time Temperature Precipitation Wind Pressure Humidity
    00:00 +6°C° 0.1 mm 4 mps 759 mmHg 91%
    01:00 +5°C° 0 mm 4 mps 759 mmHg 90%
    02:00 +5°C° 0 mm 3 mps 759 mmHg 90%
    03:00 +4°C° 0 mm 3 mps 759 mmHg 90%
    04:00 +4°C° 0 mm 3 mps 759 mmHg 90%
    05:00 +4°C° 0 mm 3 mps 760 mmHg 89%
    06:00 +4°C° 0 mm 3 mps 760 mmHg 89%
    07:00 +5°C° 0 mm 3 mps 761 mmHg 81%
    08:00 +7°C° 0 mm 4 mps 761 mmHg 72%
    09:00 +8°C° 0 mm 4 mps 761 mmHg 63%
    10:00 +8°C° 0 mm 4 mps 761 mmHg 61%
    11:00 +10°C° 0 mm 4 mps 762 mmHg 58%
    12:00 +10°C° 0 mm 4 mps 762 mmHg 55%
    13:00 +10°C° 0 mm 4 mps 762 mmHg 54%
    14:00 +10°C° 0 mm 4 mps 762 mmHg 53%
    15:00 +9°C° 0 mm 5 mps 762 mmHg 52%
    16:00 +8°C° 0 mm 4 mps 762 mmHg 55%
    17:00 +8°C° 0 mm 3 mps 763 mmHg 59%
    18:00 +7°C° 0 mm 2 mps 763 mmHg 62%
    19:00 +6°C° 0 mm 2 mps 763 mmHg 64%
    20:00 +6°C° 0 mm 1 mps 764 mmHg 67%
    21:00 +5°C° 0 mm 1 mps 764 mmHg 69%
    22:00 +5°C° 0 mm 1 mps 765 mmHg 68%
    23:00 +5°C° 0 mm 1 mps 765 mmHg 68%

    Tomorrow, 4 April, Saturday

    Time Temperature Precipitation Wind Pressure Humidity
    00:00 +5°C° 0 mm 1 mps 766 mmHg 68%
    01:00 +4°C° 0 mm 1 mps 766 mmHg 68%
    02:00 +4°C° 0 mm 1 mps 766 mmHg 69%
    03:00 +3°C° 0 mm 1 mps 766 mmHg 70%
    04:00 +3°C° 0 mm 1 mps 766 mmHg 70%
    05:00 +3°C° 0 mm 1 mps 766 mmHg 71%
    06:00 +3°C° 0 mm 1 mps 767 mmHg 71%
    07:00 +4°C° 0 mm 2 mps 767 mmHg 64%
    08:00 +7°C° 0 mm 2 mps 767 mmHg 57%
    09:00 +9°C° 0 mm 2 mps 767 mmHg 50%
    10:00 +10°C° 0 mm 2 mps 767 mmHg 47%
    11:00 +12°C° 0 mm 2 mps 767 mmHg 44%
    12:00 +12°C° 0 mm 3 mps 767 mmHg 41%
    13:00 +13°C° 0 mm 3 mps 766 mmHg 41%
    14:00 +14°C° 0 mm 2 mps 766 mmHg 42%
    15:00 +15°C° 0 mm 2 mps 766 mmHg 43%
    16:00 +14°C° 0 mm 2 mps 766 mmHg 49%
    17:00 +13°C° 0 mm 2 mps 766 mmHg 54%
    18:00 +12°C° 0 mm 2 mps 766 mmHg 60%
    19:00 +10°C° 0 mm 2 mps 766 mmHg 63%
    20:00 +9°C° 0 mm 2 mps 766 mmHg 66%
    21:00 +8°C° 0 mm 3 mps 766 mmHg 69%
    22:00 +7°C° 0 mm 3 mps 766 mmHg 71%
    23:00 +7°C° 0 mm 3 mps 766 mmHg 73%

    Day after tomorrow, 5 April, Sunday

    Time Temperature Precipitation Wind Pressure Humidity
    00:00 +7°C° 0 mm 3 mps 766 mmHg 76%
    01:00 +5°C° 0 mm 3 mps 766 mmHg 77%
    02:00 +5°C° 0 mm 3 mps 766 mmHg 77%
    03:00 +5°C° 0 mm 3 mps 765 mmHg 78%
    04:00 +5°C° 0 mm 3 mps 765 mmHg 78%
    05:00 +5°C° 0 mm 3 mps 765 mmHg 78%
    06:00 +5°C° 0 mm 4 mps 765 mmHg 78%
    07:00 +8°C° 0 mm 4 mps 764 mmHg 71%
    08:00 +10°C° 0 mm 5 mps 764 mmHg 64%
    09:00 +14°C° 0 mm 5 mps 764 mmHg 58%
    10:00 +15°C° 0 mm 5 mps 763 mmHg 54%
    11:00 +17°C° 0 mm 5 mps 763 mmHg 51%
    12:00 +19°C° 0 mm 5 mps 763 mmHg 48%
    13:00 +20°C° 0 mm 5 mps 762 mmHg 47%
    14:00 +20°C° 0 mm 5 mps 762 mmHg 47%
    15:00 +20°C° 0 mm 5 mps 762 mmHg 47%
    16:00 +19°C° 0 mm 5 mps 761 mmHg 52%
    17:00 +18°C° 0 mm 4 mps 761 mmHg 58%
    18:00 +16°C° 0 mm 3 mps 761 mmHg 64%
    19:00 +14°C° 0 mm 4 mps 761 mmHg 66%
    20:00 +13°C° 0 mm 4 mps 761 mmHg 68%
    21:00 +12°C° 0 mm 4 mps 761 mmHg 71%
    22:00 +12°C° 0 mm 4 mps 761 mmHg 71%
    23:00 +11°C° 0 mm 4 mps 761 mmHg 72%

    6 April, Monday

    Time Temperature Precipitation Wind Pressure Humidity
    00:00 +11°C° 0 mm 4 mps 761 mmHg 72%
    01:00 +11°C° 0 mm 4 mps 761 mmHg 72%
    02:00 +10°C° 0 mm 4 mps 761 mmHg 71%
    03:00 +10°C° 0 mm 4 mps 761 mmHg 70%
    04:00 +9°C° 0 mm 5 mps 761 mmHg 69%
    05:00 +9°C° 0 mm 5 mps 761 mmHg 68%
    06:00 +9°C° 0 mm 5 mps 761 mmHg 67%
    07:00 +10°C° 0 mm 6 mps 761 mmHg 61%
    08:00 +12°C° 0 mm 7 mps 761 mmHg 55%
    09:00 +15°C° 0 mm 7 mps 761 mmHg 49%
    10:00 +15°C° 0 mm 7 mps 762 mmHg 49%
    11:00 +16°C° 0 mm 7 mps 762 mmHg 48%
    12:00 +17°C° 0 mm 7 mps 762 mmHg 47%
    13:00 +17°C° 0 mm 7 mps 762 mmHg 50%
    14:00 +17°C° 0 mm 7 mps 762 mmHg 52%
    15:00 +17°C° 0 mm 7 mps 763 mmHg 55%
    16:00 +15°C° 0.3 mm 7 mps 763 mmHg 65%
    17:00 +13°C° 0.3 mm 6 mps 764 mmHg 74%
    18:00 +10°C° 0.3 mm 6 mps 764 mmHg 84%
    19:00 +10°C° 0.3 mm 5 mps 765 mmHg 86%
    20:00 +11°C° 0.3 mm 4 mps 766 mmHg 87%
    21:00 +10°C° 0.3 mm 4 mps 767 mmHg 89%
    22:00 +10°C° 0 mm 3 mps 768 mmHg 90%
    23:00 +10°C° 0 mm 3 mps 768 mmHg 91%

    7 April, Tuesday

    Time Temperature Precipitation Wind Pressure Humidity
    00:00 +9°C° 0 mm 3 mps 769 mmHg 92%
    01:00 +8°C° 0 mm 3 mps 769 mmHg 93%
    02:00 +8°C° 0 mm 3 mps 770 mmHg 93%
    03:00 +7°C° 0 mm 2 mps 770 mmHg 94%
    04:00 +7°C° 0 mm 2 mps 771 mmHg 92%
    05:00 +7°C° 0 mm 2 mps 772 mmHg 91%
    06:00 +7°C° 0 mm 2 mps 772 mmHg 90%
    07:00 +9°C° 0 mm 2 mps 773 mmHg 81%
    08:00 +12°C° 0 mm 1 mps 773 mmHg 73%
    09:00 +14°C° 0 mm 1 mps 774 mmHg 65%
    10:00 +15°C° 0 mm 1 mps 774 mmHg 59%
    11:00 +16°C° 0 mm 1 mps 774 mmHg 53%
    12:00 +19°C° 0 mm 1 mps 774 mmHg 47%
    13:00 +19°C° 0 mm 1 mps 774 mmHg 45%
    14:00 +19°C° 0 mm 1 mps 774 mmHg 43%
    15:00 +19°C° 0 mm 1 mps 774 mmHg 41%
    16:00 +18°C° 0 mm 1 mps 774 mmHg 46%
    17:00 +15°C° 0 mm 2 mps 774 mmHg 51%
    18:00 +14°C° 0 mm 2 mps 774 mmHg 56%
    19:00 +13°C° 0 mm 2 mps 774 mmHg 59%
    20:00 +12°C° 0 mm 2 mps 775 mmHg 61%
    21:00 +10°C° 0 mm 2 mps 775 mmHg 64%
    22:00 +10°C° 0 mm 2 mps 775 mmHg 66%
    23:00 +9°C° 0 mm 2 mps 775 mmHg 68%

    8 April, Wednesday

    Time Temperature Precipitation Wind Pressure Humidity
    00:00 +9°C° 0 mm 2 mps 775 mmHg 70%
    01:00 +9°C° 0 mm 2 mps 775 mmHg 73%
    02:00 +8°C° 0 mm 2 mps 775 mmHg 75%
    03:00 +8°C° 0 mm 2 mps 775 mmHg 77%
    04:00 +8°C° 0 mm 2 mps 774 mmHg 81%
    05:00 +8°C° 0 mm 2 mps 774 mmHg 84%
    06:00 +8°C° 0 mm 2 mps 774 mmHg 88%
    07:00 +10°C° 0 mm 2 mps 774 mmHg 80%
    08:00 +13°C° 0 mm 3 mps 773 mmHg 73%
    09:00 +16°C° 0 mm 3 mps 773 mmHg 66%
    10:00 +17°C° 0 mm 3 mps 773 mmHg 61%
    11:00 +19°C° 0 mm 3 mps 772 mmHg 56%
    12:00 +20°C° 0 mm 3 mps 772 mmHg 51%
    13:00 +21°C° 0 mm 3 mps 771 mmHg 50%
    14:00 +21°C° 0 mm 2 mps 771 mmHg 49%
    15:00 +23°C° 0 mm 2 mps 770 mmHg 48%
    16:00 +20°C° 0 mm 2 mps 770 mmHg 53%
    17:00 +19°C° 0 mm 2 mps 770 mmHg 58%
    18:00 +18°C° 0 mm 2 mps 769 mmHg 64%
    19:00 +17°C° 0 mm 2 mps 770 mmHg 66%
    20:00 +16°C° 0 mm 2 mps 770 mmHg 69%
    21:00 +14°C° 0 mm 3 mps 770 mmHg 71%
    22:00 +14°C° 0 mm 2 mps 770 mmHg 72%
    23:00 +14°C° 0 mm 2 mps 769 mmHg 73%
    Show more